Regional Weather Roundup
Issued by NWS

Home | Current Version | Previous Version | Graphics & Text | Print | Product List | Glossary On
Versions: 1 2 3 4 5 6 7 8 9 10 11 12 13 14 15 16 17 18 19 20 21 22 23 24 25 26 27 28 29 30 31 32 33 34 35 36 37 38 39 40 41 42 43 44 45 46 47 48 49 50
000
ASUS45 KTFX 171604
RWRMT
MONTANA HOURLY WEATHER ROUNDUP
NATIONAL WEATHER SERVICE GREAT FALLS MT
904 AM MST WED DEC 17 2014

NOTE: "FAIR" INDICATES FEW OR NO CLOUDS BELOW 12000 FEET WITH NO
SIGNIFICANT WEATHER AND/OR OBSTRUCTIONS TO VISIBILITY.

* THESE STATIONS ARE NOT UNDER NWS QUALITY CONTROL. THEY DO NOT
   REPORT WEATHER SUCH AS PRECIPITATION OR FOG.

MTZ001>007-043-171700-
WEST OF THE DIVIDE
CITY           SKY/WX    TMP DP  RH WIND       PRES   REMARKS
KALISPELL      CLOUDY    27  25  92 CALM      29.97S
MISSOULA       CLOUDY    28  23  81 CALM      29.99S
BUTTE          CLOUDY    25  21  85 CALM      29.93S
MULLAN PASS    PTSUNNY   27  25  92 VRB6      29.85F WCI  20
* ANACONDA     PTSUNNY   30  23  75 SE3        N/A
* ESSEX        N/A       23  21  92 N/A        N/A
* LINCOLN      N/A       22  20  92 N/A        N/A
* LOOKOUT PASS N/A       23  23 100 SE2        N/A
* POLSON       N/A       27  26  96 N/A        N/A
* RONAN APT    PTSUNNY   28  27  96 N/A        N/A
* SEELEY LAKE  N/A       23  21  92 N/A        N/A
* THOMP F APT  PTCLDY    24  22  92 N/A        N/A
$$

MTZ008-052>055-171700-
SOUTHWEST MONTANA
CITY           SKY/WX    TMP DP  RH WIND       PRES   REMARKS
BOZEMAN        FOG       21  19  92 E5        29.96S VSB 3    WCI  14
DILLON         CLOUDY    27  23  85 SE5       29.94S WCI  21
* W YELLOWSTON PTCLDY    24  22  92 N/A        N/A
* THREE FORKS  PTSUNNY   21   1  41 N/A        N/A
* BOULDER HILL N/A       27  23  85 SW8        N/A   WCI  19
* MONIDA PASS  N/A       23  23 100 SE9        N/A   WCI  13
* RAYNOLDS PAS N/A       23   7  50 SE9        N/A   WCI  13
* WHITEHALL    N/A       27  25  92 N5         N/A   WCI  21
* WISE RIVER   N/A       20  17  88 S1         N/A
$$

MTZ009>010-012-014-046-048-049-054-171700-
EAST SLOPES AND CENTRAL MONTANA
CITY           SKY/WX    TMP DP  RH WIND       PRES   REMARKS
CUT BANK       FOG       19  16  88 CALM      29.87S VSB M1/4
GREAT FALLS    CLOUDY    23  21  92 SW5       29.88S WCI  16
HELENA         FOG       27  25  92 CALM      29.96R
* DEARBORN     N/A       31  26  82 SE5        N/A   WCI  26
* EAST GLACIER N/A       30  23  75 W16G23     N/A   WCI  19
* MONARCH      N/A       30  23  75 S2G8       N/A
* PENDROY      N/A       21  20  96 W2         N/A
* ROGERS PASS  N/A       26  21  81 N2G8       N/A
* SWEET GRASS  N/A       20  20 100 S15        N/A   WCI   6
$$

MTZ011-013-016-021-035-040-045-047-050-051-171700-
NORTH CENTRAL MONTANA
CITY           SKY/WX    TMP DP  RH WIND       PRES   REMARKS
HAVRE          CLOUDY    21  19  92 E6        29.96F WCI  13
LEWISTOWN      LGT SNOW  27  23  85 E3        29.91R VSB 1 1/2
* N BAR RANCH  CLOUDY    27  25  92 E7        29.90R WCI  19
* CHESTER      N/A       22  20  92 S1         N/A
* DENTON       N/A       24  23  96 N/A        N/A
* GEYSER       N/A       28  27  96 SE4        N/A
* JUDITH GAP   N/A       24  24 100 SE1        N/A
* LOMA         N/A       26  23  88 E7         N/A   WCI  18
$$

MTZ017>020-022>027-061-062-171700-
NORTHEAST MONTANA
CITY           SKY/WX    TMP DP  RH WIND       PRES   REMARKS
GLASGOW        CLOUDY    18  16  92 E14       30.06S WCI   4
GLENDIVE       CLOUDY    18  16  92 SE8       30.09F WCI   8
JORDAN         CLOUDY    21  19  92 SE8       30.01F WCI  11
SIDNEY         CLOUDY    19  16  88 SE15      30.17R WCI   5
WOLF POINT     CLOUDY    19  14  81 SE12      30.13S WCI   6
* BEAVER HILL  N/A       16  14  92 SE9        N/A   WCI   5
* CIRCLE       N/A       18  16  92 E4         N/A
* LINDSAY DVD  N/A       16  14  92 SE8        N/A   WCI   5
* NAVAJO       N/A       14  12  92 SE12       N/A
* SACO         N/A       19  17  92 E12        N/A   WCI   6
$$

MTZ028>042-056>058-171700-
SOUTHCENTRAL AND SOUTHEAST MONTANA
CITY           SKY/WX    TMP DP  RH WIND       PRES   REMARKS
BAKER          CLOUDY    18  16  92 SE17      30.06S WCI   3
BILLINGS       LGT SNOW  21  19  92 SW16      29.96S VSB 1 1/2 WCI   7
LIVINGSTON     LGT SNOW  30  27  89 W7        29.93S WCI  23
MILES CITY     CLOUDY    21  18  88 SE8       30.04S WCI  11
* LAUREL APT   PTSUNNY   21  14  74 S5         N/A   WCI  14
* ROUNDUP APT  CLOUDY    25  19  78 S7         N/A   WCI  17
* ALZADA       N/A       17  15  92 E4         N/A
* HYSHAM       N/A       20  17  88 E1         N/A
* LAME DEER    N/A       17  15  92 S1         N/A
* REED POINT   N/A       22  21  96 SW2        N/A
* ROSCOE HILL  N/A       29  17  61 SE4        N/A
$$

REGIONAL REPORTS...DAKOTAS
CITY           SKY/WX    TMP DP  RH WIND       PRES   REMARKS
WILLISTON      LGT SNOW  18  12  77 SE12      30.18R WCI   5
DICKINSON      LGT SNOW  16  10  77 SE15      30.13S VSB 3    WCI   1
BEACH          CLOUDY    16  16 100 S13       30.09F WCI   2
CROSBY         CLOUDY    18  16  92 SE13      30.19R WCI   5
WATFORD CITY   LGT SNOW  16  14  92 S10       30.15F WCI   4
BISMARCK       LGT SNOW  14   9  80 SE9       30.29S WCI   2
GRAND FORKS    PTCLDY     5   1  83 NW5       30.39R WCI  -5
FARGO          PTCLDY     9   3  76 NW6       30.39R WCI  -1
BUFFALO SD     PTCLDY    18  14  84 SE14      30.00S WCI   4
RAPID CITY     CLOUDY    19  18  96 SE8       30.05R WCI   9
$$

REGIONAL REPORTS...WYOMING/IDAHO/WASHINGTON
CITY           SKY/WX    TMP DP  RH WIND       PRES   REMARKS
GILLETTE       PTCLDY    14  10  84 CALM      29.94R
SHERIDAN       FOG       16  12  84 CALM      29.95F VSB M1/4
CODY           CLOUDY    18  16  92 CALM      29.91S
YELLOWSTONE LA PTSUNNY   19  18  96 CALM      29.96R
SALMON         CLOUDY    25  23  92 CALM      30.00R VSB 3
MULLAN PASS    PTSUNNY   27  25  92 VRB6      29.85S WCI  20
SAND POINT     CLOUDY    32  30  92 NE5       29.96F WCI  27
SPOKANE        PTSUNNY   30  30 100 NE8       29.91F WCI  22

$$



USA.gov is the U.S. government's official web portal to all federal, state and local government web resources and services.